OPTICUBE 04 (41851 NORAD) Tracking and Keplerian Element Data

This shows tracking and keplerian element data for the satellite.

Feedback or suggestion? Click here.




ElementValue
Catalog41851
NameOPTICUBE 04
Epoch Orbit13840
Epoch Day146.2160125
Epoch Year2019
RAAN243.5457
Inclination97.9146
Eccentricity0.0010569
Argument of Perigee102.5679
Mean Anonmoly257.6725
Mean Motion14.96798215
Decay Rate6.16E-06
L11 41851U 16067D 19146.21601250 .00000616 00000-0 59072-4 0 9997
L22 41851 97.9146 243.5457 0010569 102.5679 257.6725 14.96798215138400

Live tracking and technical data element details for OPTICUBE 04 (NORAD 41851). OPTICUBE 04 can be tracked NOW for your location showing map with azimuth and elevation plus other details from your city location.

Track the satellite on the map from your city or location and see movement details for azimuth, elevation, latitude, longitude, range, height, and movement on the map or in text.







IsCatalogInMostPopularTable: catalog: 41851, numindb: 196
Update: records affected: 1



GetName: 41851 OPTICUBE 04

Hit Count: updated at: Sun, 26 May 2019 18:57:37 GMT